This is the latest recevied weather packets stored in our database for station/object N7CW. If no packets are shown the sender has not sent any weather packets the latest 10 day(s).
| Time | Temp. | Humidity | Pressure | Rain* | Wind** | Luminosity | Snow |
|---|---|---|---|---|---|---|---|
| 1777425114 | 16.67° C | 22% | 1018.5 hPa | 0 mm | - | 69 W/m² | - |
| 1777424811 | 17.22° C | 22% | 1018.2 hPa | 0 mm | - | 79 W/m² | - |
| 1777424506 | 17.22° C | 22% | 1018.6 hPa | 0 mm | - | 91 W/m² | - |
| 1777424202 | 16.67° C | 21% | 1018.4 hPa | 0 mm | - | 104 W/m² | - |
| 1777423900 | 17.22° C | 21% | 1018.1 hPa | 0 mm | - | 120 W/m² | - |
| 1777423596 | 17.22° C | 22% | 1018.1 hPa | 0 mm | - | 143 W/m² | - |
| 1777423291 | 17.22° C | 21% | 1018.2 hPa | 0 mm | - | 146 W/m² | - |
| 1777422986 | 17.78° C | 20% | 1018.1 hPa | 0 mm | - | 146 W/m² | - |
| 1777422681 | 17.22° C | 20% | 1018.2 hPa | 0 mm | - | 174 W/m² | - |
| 1777422376 | 17.78° C | 20% | 1018.4 hPa | 0 mm | - | 189 W/m² | - |
| 1777422072 | 17.78° C | 20% | 1018.2 hPa | 0 mm | - | 203 W/m² | - |
| 1777421766 | 17.78° C | 19% | 1018.1 hPa | 0 mm | - | 217 W/m² | - |
| 1777421462 | 17.78° C | 19% | 1018.1 hPa | 0 mm | - | 233 W/m² | - |
| 1777421159 | 18.33° C | 20% | 1018.4 hPa | 0 mm | - | 251 W/m² | - |
| 1777420855 | 18.33° C | 19% | 1018.2 hPa | 0 mm | - | 267 W/m² | - |
| 1777420551 | 18.33° C | 20% | 1018 hPa | 0 mm | - | 281 W/m² | - |
| 1777420247 | 18.33° C | 20% | 1017.9 hPa | 0 mm | - | 298 W/m² | - |
| 1777419943 | 18.89° C | 20% | 1018 hPa | 0 mm | - | 313 W/m² | - |
| 1777419640 | 18.33° C | 20% | 1017.9 hPa | 0 mm | - | 334 W/m² | - |
| 1777419339 | 18.89° C | 20% | 1018 hPa | 0 mm | - | 350 W/m² | - |
| 1777419037 | 18.33° C | 19% | 1017.9 hPa | 0 mm | - | 369 W/m² | - |
| 1777418737 | 18.33° C | 19% | 1017.9 hPa | 0 mm | - | 386 W/m² | - |
| 1777418434 | 18.33° C | 20% | 1018 hPa | 0 mm | - | 401 W/m² | - |
| 1777418130 | 18.89° C | 20% | 1017.8 hPa | 0 mm | - | 418 W/m² | - |
| 1777417827 | 18.89° C | 19% | 1017.9 hPa | 0 mm | - | 433 W/m² | - |
* Rain latest hour (hover to see other rain measurements)
** Current wind speed in m/s (hover to see current wind gust speed)